Regional Weather Roundup
Issued by NWS

Home | Current Version | Previous Version | Graphics & Text | Print | Product List | Glossary On
Versions: 1 2 3 4 5 6 7 8 9 10 11 12 13 14 15 16 17 18 19 20 21 22 23 24 25 26 27 28 29 30 31 32 33 34 35 36 37 38 39 40 41 42 43 44 45 46 47 48 49 50
000
ASUS44 KMEG 012010
RWRTN
TENNESSEE HOURLY STATE WEATHER ROUNDUP
NATIONAL WEATHER SERVICE MEMPHIS TN
300 PM CDT SAT AUG 01 2015

TNZ002-004-019-021-049-052-054-088>092-012100-
WEST TENNESSEE

CITY           SKY/WX    TMP DP  RH WIND       PRES   REMARKS
MEMPHIS INTL   MOSUNNY   96  62  32 NE8       29.99F HX  97
NWS MEMPHIS      N/A     93 N/A N/A MISG        N/A
JACKSON        MOSUNNY   95  61  32 N5        29.99F HX  95
DYERSBURG        N/A    N/A N/A N/A MISG        N/A
PARIS          SUNNY     88  64  45 CALM      30.01F
LEXINGTON      SUNNY     90  64  43 VRB3      29.99F HX  91
$$

TNZ008-025-027-028-033-062-065-066-012100-
NORTH MIDDLE TENNESSEE

CITY           SKY/WX    TMP DP  RH WIND       PRES   REMARKS
NASHVILLE      MOSUNNY   92  64  39 NE7       29.99F HX  93
CLARKSVILLE    MOSUNNY   90  69  50 NW7       29.99F HX  94
SMYRNA         MOSUNNY   97  64  33 N10       29.99F HX  99
CROSSVILLE     SUNNY     86  59  39 N10       30.06F
$$

TNZ061-075-076-078-094-096-097-012100-
SOUTH MIDDLE TENNESSEE

CITY           SKY/WX    TMP DP  RH WIND       PRES   REMARKS
FAYETTEVILLE   MOSUNNY   88  57  35 NE9       30.00F
TULLAHOMA      MOSUNNY   88  57  35 NE9       30.02F
WINCHESTER     SUNNY     90  63  40 N9        30.01F HX  90
MCMINNVILLE    MOSUNNY   90  66  45 N8        30.01F HX  92
COLUMBIA       SUNNY     91  66  43 NE8       29.99F HX  94
SHELBYVILLE    SUNNY     91  64  40 N8        30.00F HX  93
$$

TNZ017-018-042-046-047-012100-
NORTHEAST TENNESSEE

CITY           SKY/WX    TMP DP  RH WIND       PRES   REMARKS
TRI CITIES     PTSUNNY   88  58  36 VRB3      30.00F
ELIZABETHTON   PTCLDY    82  57  42 VRB3      30.01F
$$

TNZ012-013-036-069-073-074-012100-
CENTRAL EAST TENNESSEE

CITY           SKY/WX    TMP DP  RH WIND       PRES   REMARKS
KNOXVILLE      MOSUNNY   89  57  33 NW8       29.98F
OAK RIDGE      CLOUDY    91  60  35 VRB5      30.00F HX  90
GATLINBURG       N/A     88  55  33 W7        29.99F
MORRISTOWN     PTCLDY    84  61  45 CALM      30.01F
$$

TNZ083-085-099-012100-
SOUTHEAST TENNESSEE

CITY           SKY/WX    TMP DP  RH WIND       PRES   REMARKS
CHATTANOOGA    MOSUNNY   92  60  34 VRB7      29.98F HX  91
$$

SKY/WX REPORTED AS FAIR MEANS FEW OR NO CLOUDS BELOW
12 THOUSAND FEET.




USA.gov is the U.S. government's official web portal to all federal, state and local government web resources and services.